Kiev, Ukraine

6:44 AM EET on January 18, 2017 (GMT +0200)
Kiev

Weather History for 33345 - September, 2013

Change the Weather History Date:

Sunday, September 15, 2013

  Actual Average Record
Temperature  
Mean Temperature 57 °F -  
Max Temperature 59 °F - - ()
Min Temperature 55 °F - - ()
Degree Days  
Heating Degree Days 8    
Growing Degree Days 7 (Base 50)    
Moisture  
Dew Point 56 °F    
Average Humidity 96    
Maximum Humidity 100    
Minimum Humidity 88    
Precipitation  
Precipitation 0.28 in 0.05 in - ()
Sea Level Pressure  
Sea Level Pressure 29.56 in    
Wind  
Wind Speed 8 mph ()    
Max Wind Speed 18 mph    
Max Gust Speed 27 mph    
Visibility 5.7 miles    
Events Rain    
T = Trace of Precipitation, MM = Missing Value Source: Averaged Metar Reports

Daily Weather History Graph

Daily Weather History Graph

Search for Another Location

Airport or City:

Trip Planner

Search our weather history database for the weather conditions in past years. The results will help you decide how hot, cold, wet, or windy it might be!

Date:

Astronomy

Sep. 15, 2013 Rise Set
Actual Time 6:33 AM EEST 7:12 PM EEST
Civil Twilight 6:00 AM EEST 7:44 PM EEST
Nautical Twilight 5:21 AM EEST 8:23 PM EEST
Astronomical Twilight 4:40 AM EEST 9:04 PM EEST
Moon 4:44 PM EEST (9/15) 1:26 AM EEST (9/15)
Length of Visible Light 13h 43m
Length of Day
12h 38m
Waxing Gibbous, 79% of the Moon is Illuminated
Sep 15
Waxing Gibbous
Sep 19
Full
Sep 27
Last Quarter
Oct 5
New
Oct 12
First Quarter

Hourly Weather History & Observations

Time (EEST) Temp. Dew Point Humidity Pressure Visibility Wind Dir Wind Speed Gust Speed Precip Events Conditions
12:00 AM 58 °F 57 °F 97% 29.51 in 12 mi NE 11.2 mph - -   Partly Cloudy
12:00 AM 59.0 °F 57.2 °F 94% 29.50 in 6.2 mi NE 17.9 mph - N/A   Overcast
12:30 AM 59.0 °F 57.2 °F 94% 29.50 in 6.2 mi NE 17.9 mph - N/A   Overcast
1:00 AM 59.0 °F 57.2 °F 94% 29.50 in 6.2 mi NE 17.9 mph - N/A   Overcast
1:30 AM 59.0 °F 57.2 °F 94% 29.50 in 6.2 mi NE 15.7 mph 26.8 mph N/A   Overcast
2:00 AM 59.0 °F 57.2 °F 94% 29.50 in 6.2 mi NE 13.4 mph - N/A   Overcast
2:30 AM 59.0 °F 57.2 °F 94% 29.50 in 6.2 mi NE 15.7 mph - N/A   Overcast
3:00 AM 58 °F 57 °F 95% 29.51 in 12 mi NE 6.7 mph - -   Partly Cloudy
3:00 AM 59.0 °F 57.2 °F 94% 29.50 in 6.2 mi NE 13.4 mph - N/A   Overcast
3:30 AM 59.0 °F 57.2 °F 94% 29.50 in 6.2 mi NE 11.2 mph - N/A   Overcast
4:00 AM 59.0 °F 57.2 °F 94% 29.50 in 6.2 mi NE 8.9 mph - N/A   Overcast
4:30 AM 59.0 °F 57.2 °F 94% 29.50 in 5.6 mi NE 8.9 mph - N/A   Overcast
5:00 AM 57.2 °F 53.6 °F 88% 29.50 in 6.2 mi ESE 6.7 mph - N/A   Overcast
5:30 AM 57.2 °F 55.4 °F 94% 29.53 in 6.2 mi NE 4.5 mph - N/A   Overcast
5:57 AM 57.2 °F 57.2 °F 100% 29.50 in 6.2 mi NNE 4.5 mph - N/A Rain Light Rain
6:00 AM 56 °F 54 °F 93% 29.52 in 12 mi Calm Calm - -   Overcast
6:00 AM 57.2 °F 57.2 °F 100% 29.50 in 6.2 mi NNE 6.7 mph - N/A Rain Light Rain
6:30 AM 57.2 °F 57.2 °F 100% 29.50 in 5.0 mi NNE 6.7 mph - N/A   Overcast
7:00 AM 57.2 °F 57.2 °F 100% 29.53 in - NNE 6.7 mph - N/A   Overcast
7:30 AM 57.2 °F 57.2 °F 100% 29.53 in 3.1 mi North 11.2 mph - N/A   Overcast
8:00 AM 57.2 °F 57.2 °F 100% 29.50 in 2.5 mi NNE 8.9 mph - N/A   Light Drizzle
8:30 AM 57.2 °F 57.2 °F 100% 29.50 in - North 11.2 mph - N/A   Light Drizzle
9:00 AM 57 °F 57 °F 99% 29.53 in 6 mi NNE 8.9 mph - - Rain Heavy Rain Showers
9:00 AM 57.2 °F 57.2 °F 100% 29.53 in 1.6 mi North 11.2 mph - N/A   Light Drizzle
9:30 AM 57.2 °F 57.2 °F 100% 29.53 in 4.3 mi North 11.2 mph - N/A Rain Light Rain Showers
9:31 AM 57.2 °F 57.2 °F 100% 29.53 in 4.3 mi NNE 11.2 mph - N/A Rain Light Rain Showers
10:00 AM 57.2 °F 57.2 °F 100% 29.53 in - NNE 11.2 mph - N/A Rain Light Rain Showers
10:30 AM 57.2 °F 57.2 °F 100% 29.53 in 1.6 mi NNE 11.2 mph - N/A Rain Light Rain Showers
11:00 AM 59.0 °F 57.2 °F 94% 29.53 in 3.1 mi NNE 11.2 mph - N/A Rain Light Rain Showers
11:30 AM 59.0 °F 57.2 °F 94% 29.56 in 3.7 mi North 8.9 mph - N/A Rain Light Rain Showers
12:00 PM 58 °F 56 °F 90% 29.57 in 2 mi East 2.2 mph - - Rain Light Rain
12:00 PM 57.2 °F 57.2 °F 100% 29.56 in 0.6 mi East 6.7 mph - N/A Rain Rain Showers
12:12 PM 57.2 °F 55.4 °F 94% 29.56 in - East 4.5 mph - N/A Rain Light Rain Showers
12:13 PM 57.2 °F 55.4 °F 94% 29.56 in - East 4.5 mph - N/A Rain Light Rain Showers
12:30 PM 57.2 °F 57.2 °F 100% 29.56 in 6.2 mi ENE 4.5 mph - N/A Rain Light Rain Showers
1:00 PM 59.0 °F 57.2 °F 94% 29.56 in 6.2 mi Calm Calm - N/A Rain Light Rain Showers
1:30 PM 59.0 °F 57.2 °F 94% 29.56 in 6.2 mi Variable 2.2 mph - N/A Rain Light Rain Showers
2:00 PM 59.0 °F 57.2 °F 94% 29.56 in 3.7 mi WNW 4.5 mph - N/A Rain Light Rain Showers
2:30 PM 59.0 °F 57.2 °F 94% 29.59 in 4.3 mi NNW 4.5 mph - N/A   Mostly Cloudy
3:00 PM 57.2 °F 57.2 °F 100% 29.59 in 6.2 mi East 4.5 mph - N/A Rain Light Rain Showers
3:30 PM 57.2 °F 55.4 °F 94% 29.59 in 3.1 mi ESE 4.5 mph - N/A Rain Light Rain Showers
4:00 PM 55.4 °F 55.4 °F 100% 29.59 in 3.1 mi Calm Calm - N/A Rain Light Rain Showers
4:30 PM 57.2 °F 55.4 °F 94% 29.62 in 6.2 mi Calm Calm - N/A   Mostly Cloudy
5:00 PM 57.2 °F 53.6 °F 88% 29.62 in 6.2 mi Calm Calm - N/A   Mostly Cloudy
5:30 PM 57.2 °F 53.6 °F 88% 29.62 in 6.2 mi Calm Calm - N/A   Mostly Cloudy
6:00 PM 58 °F 55 °F 88% 29.63 in 12 mi Calm Calm - -   Partly Cloudy
6:00 PM 57.2 °F 55.4 °F 94% 29.62 in 6.2 mi NW 2.2 mph - N/A   Mostly Cloudy
6:30 PM 57.2 °F 55.4 °F 94% 29.62 in 6.2 mi North 2.2 mph - N/A   Mostly Cloudy
7:00 PM 57.2 °F 57.2 °F 100% 29.65 in 4.3 mi NW 4.5 mph - N/A   Unknown
7:30 PM 57.2 °F 57.2 °F 100% 29.65 in 6.2 mi NNW 4.5 mph - N/A   Mostly Cloudy
8:00 PM 57.2 °F 55.4 °F 94% 29.65 in 6.2 mi North 4.5 mph - N/A   Mostly Cloudy
8:30 PM 57.2 °F 57.2 °F 100% 29.65 in 5.0 mi NNW 4.5 mph - N/A Rain Light Rain
9:00 PM 57 °F 55 °F 92% 29.68 in 12 mi North 2.2 mph - -   Partly Cloudy
9:00 PM 57.2 °F 55.4 °F 94% 29.65 in 6.2 mi Variable 2.2 mph - N/A   Overcast
9:30 PM 57.2 °F 55.4 °F 94% 29.68 in 5.0 mi Variable 2.2 mph - N/A   Mostly Cloudy
10:00 PM 57.2 °F 55.4 °F 94% 29.68 in 5.6 mi North 4.5 mph - N/A   Unknown
10:30 PM 55.4 °F 55.4 °F 100% 29.68 in 4.3 mi WNW 4.5 mph - N/A   Mostly Cloudy
11:00 PM 55.4 °F 55.4 °F 100% 29.68 in 5.0 mi NW 4.5 mph - N/A   Mostly Cloudy
11:30 PM 55.4 °F 55.4 °F 100% 29.68 in 6.2 mi NW 4.5 mph - N/A   Mostly Cloudy